| time (UTC) | temp F | wind direction | speed knots | gust knots | rain 1hr in | rain 24hr in | rain mn in | humidity % | barometer mb |
| 20260505223309 | 51 | 10 | 0.9 | 7.8 | 0.00 | 0.00 | 0.00 | 73 | 7.8 |
| 20260505222309 | 51 | 38 | 0.9 | 10.4 | 0.00 | 0.00 | 0.00 | 73 | 7.8 |
| 20260505221309 | 51 | 346 | 4.3 | 9.6 | 0.00 | 0.00 | 0.00 | 72 | 8.0 |
| 20260505220309 | 51 | 355 | 2.6 | 8.7 | 0.00 | 0.00 | 0.00 | 72 | 8.1 |
| 20260505215309 | 51 | 47 | 0.0 | 8.7 | 0.00 | 0.00 | 0.00 | 72 | 8.1 |
| 20260505214309 | 51 | 30 | 0.0 | 7.8 | 0.00 | 0.00 | 0.00 | 72 | 8.2 |
| 20260505212309 | 51 | 58 | 0.9 | 7.8 | 0.00 | 0.00 | 0.00 | 71 | 8.3 |
| 20260505211309 | 51 | 82 | 0.9 | 5.2 | 0.00 | 0.00 | 0.00 | 70 | 8.2 |
| 20260505205309 | 52 | 348 | 0.0 | 7.8 | 0.00 | 0.00 | 0.00 | 70 | 8.2 |
| 20260505203309 | 52 | 5 | 0.0 | 2.6 | 0.00 | 0.00 | 0.00 | 73 | 8.2 |
| 20260505202309 | 52 | 71 | 0.0 | 8.7 | 0.00 | 0.00 | 0.00 | 72 | 8.1 |
| 20260505201310 | 52 | 61 | 0.0 | 7.8 | 0.00 | 0.00 | 0.00 | 72 | 8.2 |
| 20260505193309 | 53 | 42 | 0.0 | 5.2 | 0.00 | 0.00 | 0.00 | 69 | 8.0 |
| 20260505192311 | 53 | 74 | 0.9 | 7.8 | 0.00 | 0.00 | 0.00 | 68 | 8.0 |
| 20260505191309 | 53 | 65 | 1.7 | 11.3 | 0.00 | 0.00 | 0.00 | 68 | 7.9 |
| 20260505185309 | 53 | 40 | 2.6 | 7.8 | 0.00 | 0.00 | 0.00 | 68 | 8.0 |
| 20260505184309 | 53 | 39 | 1.7 | 10.4 | 0.00 | 0.00 | 0.00 | 67 | 7.8 |
| 20260505183309 | 54 | 52 | 4.3 | 13.0 | 0.00 | 0.00 | 0.00 | 67 | 7.9 |
| 20260505182309 | 54 | 65 | 3.5 | 8.7 | 0.00 | 0.00 | 0.00 | 67 | 7.8 |
| 20260505181310 | 54 | 62 | 3.5 | 12.2 | 0.00 | 0.00 | 0.00 | 65 | 7.8 |
| 20260505180309 | 55 | 74 | 5.2 | 12.2 | 0.00 | 0.00 | 0.00 | 65 | 7.7 |
| 20260505174309 | 56 | 35 | 6.1 | 13.9 | 0.00 | 0.00 | 0.00 | 64 | 7.8 |
| 20260505173309 | 56 | 43 | 6.1 | 12.2 | 0.00 | 0.00 | 0.00 | 63 | 7.7 |
| 20260505172309 | 57 | 61 | 5.2 | 11.3 | 0.00 | 0.00 | 0.00 | 62 | 7.7 |
| 20260505171309 | 58 | 85 | 1.7 | 10.4 | 0.00 | 0.00 | 0.00 | 62 | 7.8 |
| 20260505165309 | 58 | 71 | 1.7 | 12.2 | 0.00 | 0.00 | 0.00 | 60 | 7.8 |
| 20260505164309 | 58 | 60 | 1.7 | 9.6 | 0.00 | 0.00 | 0.00 | 62 | 7.9 |
| 20260505163310 | 59 | 42 | 4.3 | 12.2 | 0.00 | 0.00 | 0.00 | 59 | 8.0 |
| 20260505162309 | 59 | 90 | 4.3 | 13.0 | 0.00 | 0.00 | 0.00 | 60 | 8.0 |
| 20260505161309 | 59 | 84 | 2.6 | 9.6 | 0.00 | 0.00 | 0.00 | 61 | 7.9 |
| 20260505152309 | 58 | 105 | 0.9 | 9.6 | 0.00 | 0.00 | 0.00 | 64 | 8.2 |
| 20260505151310 | 57 | 74 | 2.6 | 8.7 | 0.00 | 0.00 | 0.00 | 66 | 8.3 |
| 20260505122309 | 53 | 84 | 0.0 | 8.7 | 0.00 | 0.00 | 0.00 | 76 | 9.1 |
| 20260505121309 | 53 | 75 | 2.6 | 10.4 | 0.00 | 0.00 | 0.00 | 75 | 9.1 |
| 20260505115309 | 53 | 94 | 4.3 | 9.6 | 0.00 | 0.00 | 0.00 | 76 | 9.4 |
| 20260505114309 | 53 | 74 | 0.0 | 9.6 | 0.00 | 0.00 | 0.00 | 77 | 9.4 |
| 20260505113309 | 52 | 69 | 2.6 | 12.2 | 0.00 | 0.00 | 0.00 | 76 | 9.3 |
| 20260505112309 | 52 | 57 | 1.7 | 7.8 | 0.00 | 0.00 | 0.00 | 77 | 9.4 |
| 20260505111310 | 52 | 55 | 1.7 | 6.1 | 0.00 | 0.00 | 0.00 | 77 | 9.4 |
| 20260505095310 | 53 | 76 | 2.6 | 9.6 | 0.00 | 0.00 | 0.00 | 77 | 9.8 |
| 20260505093310 | 52 | 343 | 0.0 | 7.0 | 0.00 | 0.00 | 0.00 | 78 | 10.1 |
| 20260505084310 | 50 | 54 | 2.6 | 11.3 | 0.00 | 0.00 | 0.00 | 80 | 9.7 |
| 20260505083310 | 50 | 50 | 1.7 | 7.8 | 0.00 | 0.00 | 0.00 | 81 | 9.8 |
| 20260505082310 | 50 | 90 | 2.6 | 13.0 | 0.00 | 0.00 | 0.00 | 80 | 9.7 |
| 20260505075310 | 50 | 78 | 3.5 | 12.2 | 0.00 | 0.00 | 0.00 | 82 | 9.8 |
| 20260505074310 | 49 | 54 | 6.1 | 11.3 | 0.00 | 0.00 | 0.00 | 82 | 9.9 |
| 20260505073310 | 49 | 69 | 4.3 | 12.2 | 0.00 | 0.00 | 0.00 | 83 | 9.8 |
| 20260505072310 | 49 | 73 | 6.1 | 12.2 | 0.00 | 0.00 | 0.00 | 84 | 9.8 |
| 20260505071310 | 49 | 68 | 4.3 | 10.4 | 0.00 | 0.00 | 0.00 | 84 | 9.8 |
| 20260505065310 | 49 | 30 | 0.9 | 10.4 | 0.00 | 0.00 | 0.00 | 85 | 10.0 |
| 20260505064313 | 49 | 59 | 1.7 | 10.4 | 0.00 | 0.00 | 0.00 | 85 | 10.2 |
| 20260505063310 | 49 | 44 | 4.3 | 9.6 | 0.00 | 0.00 | 0.00 | 85 | 10.1 |
| 20260505062310 | 49 | 90 | 5.2 | 10.4 | 0.00 | 0.00 | 0.00 | 85 | 10.3 |
| 20260505061310 | 49 | 30 | 2.6 | 7.0 | 0.00 | 0.00 | 0.00 | 85 | 10.3 |
| 20260505055311 | 49 | 63 | 0.9 | 6.1 | 0.00 | 0.00 | 0.00 | 85 | 10.5 |
| 20260505054310 | 49 | 355 | 2.6 | 10.4 | 0.00 | 0.00 | 0.00 | 85 | 10.3 |
| 20260505052310 | 49 | 19 | 2.6 | 9.6 | 0.00 | 0.00 | 0.00 | 85 | 9.8 |
| 20260505041310 | 49 | 55 | 0.9 | 10.4 | 0.00 | 0.00 | 0.00 | 86 | 9.9 |
| 20260505035310 | 49 | 53 | 5.2 | 10.4 | 0.00 | 0.00 | 0.00 | 85 | 10.0 |
| 20260505034310 | 49 | 49 | 2.6 | 7.8 | 0.00 | 0.00 | 0.00 | 86 | 9.9 |
| 20260505033311 | 49 | 62 | 1.7 | 8.7 | 0.00 | 0.00 | 0.00 | 86 | 10.0 |
| 20260505032310 | 49 | 77 | 0.0 | 4.3 | 0.00 | 0.00 | 0.00 | 86 | 10.0 |
| 20260505031310 | 50 | 44 | 0.9 | 9.6 | 0.00 | 0.00 | 0.00 | 86 | 10.0 |
| 20260505024310 | 50 | 44 | 1.7 | 7.8 | 0.00 | 0.00 | 0.00 | 85 | 10.0 |
| 20260505023311 | 50 | 36 | 2.6 | 11.3 | 0.00 | 0.00 | 0.00 | 85 | 10.0 |
| 20260505022310 | 50 | 63 | 7.8 | 13.0 | 0.00 | 0.00 | 0.00 | 84 | 10.0 |
| 20260505015310 | 51 | 38 | 0.9 | 9.6 | 0.00 | 0.00 | 0.00 | 84 | 10.1 |
| 20260505013311 | 51 | 36 | 0.9 | 7.0 | 0.00 | 0.00 | 0.00 | 84 | 10.3 |
| 20260505012311 | 51 | 17 | 3.5 | 11.3 | 0.00 | 0.00 | 0.00 | 84 | 10.4 |
| 20260505011312 | 51 | 71 | 0.0 | 7.8 | 0.00 | 0.00 | 0.00 | 84 | 10.4 |
| 20260505003311 | 52 | 9 | 1.7 | 11.3 | 0.00 | 0.00 | 0.00 | 84 | 10.4 |
| 20260505001310 | 53 | 57 | 3.5 | 13.9 | 0.00 | 0.00 | 0.00 | 83 | 10.5 |
| 20260504235310 | 53 | 63 | 1.7 | 8.7 | 0.00 | 0.00 | 0.00 | 83 | 10.6 |
| 20260504234310 | 54 | 88 | 2.6 | 8.7 | 0.00 | 0.00 | 0.00 | 82 | 10.7 |
| 20260504232310 | 54 | 14 | 2.6 | 8.7 | 0.00 | 0.00 | 0.00 | 82 | 10.8 |
| 20260504231314 | 54 | 22 | 2.6 | 11.3 | 0.00 | 0.00 | 0.00 | 81 | 10.8 |
| 20260504225309 | 55 | 36 | 0.0 | 7.0 | 0.00 | 0.00 | 0.00 | 81 | 10.8 |